Time,TemperatureF,DewpointF,PressureIn,WindDirection,WindDirectionDegrees,WindSpeedMPH,WindSpeedGustMPH,Humidity,HourlyPrecipIn,Conditions,Clouds,dailyrainin,SoftwareType,DateUTC
2015-08-28 00:04:00,64.5,60.2,30.04,NW,319,0.0,0.0,86,0.00,CLR,,0.00,WeatherDisplay:10.37,2015-08-28 04:04:00,
2015-08-28 00:09:00,64.5,60.5,30.04,NW,320,0.2,1.2,87,0.00,CLR,,0.00,WeatherDisplay:10.37,2015-08-28 04:09:00,
2015-08-28 00:14:00,64.4,60.4,30.04,NW,322,0.2,2.3,87,0.00,CLR,,0.00,WeatherDisplay:10.37,2015-08-28 04:14:00,
2015-08-28 00:19:00,64.3,60.3,30.04,NW,322,0.1,1.2,87,0.00,CLR,,0.00,WeatherDisplay:10.37,2015-08-28 04:19:00,
2015-08-28 00:24:00,64.3,60.7,30.04,NW,320,0.2,1.2,88,0.00,CLR,,0.00,WeatherDisplay:10.37,2015-08-28 04:24:00,
2015-08-28 00:29:00,64.2,60.6,30.04,North,10,0.6,3.5,88,0.00,CLR,,0.00,WeatherDisplay:10.37,2015-08-28 04:29:00,
2015-08-28 00:34:00,64.2,60.6,30.04,NW,311,0.8,1.2,88,0.00,CLR,,0.00,WeatherDisplay:10.37,2015-08-28 04:34:00,
2015-08-28 00:39:00,64.3,60.7,30.05,NW,316,0.6,1.2,88,0.00,CLR,,0.00,WeatherDisplay:10.37,2015-08-28 04:39:00,
2015-08-28 00:44:00,64.3,61.0,30.05,NW,316,0.0,0.0,89,0.00,CLR,,0.00,WeatherDisplay:10.37,2015-08-28 04:44:00,
2015-08-28 00:49:00,64.3,61.0,30.05,NW,316,0.1,2.3,89,0.00,CLR,,0.00,WeatherDisplay:10.37,2015-08-28 04:49:00,
2015-08-28 00:54:00,64.3,61.0,30.05,NW,316,0.0,0.0,89,0.00,CLR,,0.00,WeatherDisplay:10.37,2015-08-28 04:54:00,
2015-08-28 00:59:00,64.2,60.9,30.05,NW,316,0.0,0.0,89,0.00,CLR,,0.00,WeatherDisplay:10.37,2015-08-28 04:59:00,
2015-08-28 01:04:00,64.0,60.7,30.05,NW,316,0.0,0.0,89,0.00,CLR,,0.00,WeatherDisplay:10.37,2015-08-28 05:04:00,
2015-08-28 01:09:00,63.9,60.9,30.05,NW,316,0.0,0.0,90,0.00,CLR,,0.00,WeatherDisplay:10.37,2015-08-28 05:09:00,
2015-08-28 01:14:00,63.7,60.7,30.05,NW,316,0.0,0.0,90,0.00,CLR,,0.00,WeatherDisplay:10.37,2015-08-28 05:14:00,
2015-08-28 01:19:00,63.6,60.9,30.05,NW,316,0.0,0.0,91,0.00,CLR,,0.00,WeatherDisplay:10.37,2015-08-28 05:19:00,
2015-08-28 01:24:00,63.4,60.7,30.05,NW,316,0.0,0.0,91,0.00,CLR,,0.00,WeatherDisplay:10.37,2015-08-28 05:24:00,
2015-08-28 01:29:00,63.3,60.6,30.05,NW,316,0.0,0.0,91,0.00,CLR,,0.00,WeatherDisplay:10.37,2015-08-28 05:29:00,
2015-08-28 01:34:00,63.1,60.4,30.05,NW,316,0.0,0.0,91,0.00,CLR,,0.00,WeatherDisplay:10.37,2015-08-28 05:34:00,
2015-08-28 01:39:00,63.0,60.6,30.04,NW,316,0.0,0.0,92,0.00,CLR,,0.00,WeatherDisplay:10.37,2015-08-28 05:39:00,
2015-08-28 01:44:00,62.9,60.5,30.04,NW,316,0.0,0.0,92,0.00,CLR,,0.00,WeatherDisplay:10.37,2015-08-28 05:44:00,
2015-08-28 01:49:00,62.8,60.4,30.04,NW,316,0.0,0.0,92,0.00,CLR,,0.00,WeatherDisplay:10.37,2015-08-28 05:49:00,
2015-08-28 01:54:00,62.6,60.2,30.04,NW,316,0.0,0.0,92,0.00,CLR,,0.00,WeatherDisplay:10.37,2015-08-28 05:54:00,
2015-08-28 01:59:00,62.4,60.3,30.04,NW,316,0.0,0.0,93,0.00,CLR,,0.00,WeatherDisplay:10.37,2015-08-28 05:59:00,
2015-08-28 02:04:00,62.3,59.9,30.04,NW,316,0.0,0.0,92,0.00,CLR,,0.00,WeatherDisplay:10.37,2015-08-28 06:04:00,
2015-08-28 02:09:00,62.1,60.1,30.04,NW,316,0.0,0.0,93,0.00,CLR,,0.00,WeatherDisplay:10.37,2015-08-28 06:09:00,
2015-08-28 02:14:00,61.9,59.9,30.04,NW,316,0.0,0.0,93,0.00,CLR,,0.00,WeatherDisplay:10.37,2015-08-28 06:14:00,
2015-08-28 02:19:00,61.7,59.7,30.04,NW,316,0.0,0.0,93,0.00,CLR,,0.00,WeatherDisplay:10.37,2015-08-28 06:19:00,
2015-08-28 02:24:00,61.6,59.6,30.04,NW,316,0.0,0.0,93,0.00,CLR,,0.00,WeatherDisplay:10.37,2015-08-28 06:24:00,
2015-08-28 02:29:00,61.6,59.6,30.04,NW,316,0.2,1.2,93,0.00,CLR,,0.00,WeatherDisplay:10.37,2015-08-28 06:29:00,
2015-08-28 02:34:00,61.5,59.8,30.05,NNW,330,0.0,0.0,94,0.00,CLR,,0.00,WeatherDisplay:10.37,2015-08-28 06:34:00,
2015-08-28 02:39:00,61.4,59.7,30.05,NNW,329,0.0,0.0,94,0.00,CLR,,0.00,WeatherDisplay:10.37,2015-08-28 06:39:00,
2015-08-28 02:44:00,61.3,59.6,30.05,NNW,328,0.0,0.0,94,0.00,CLR,,0.00,WeatherDisplay:10.37,2015-08-28 06:44:00,
2015-08-28 02:49:00,61.3,59.6,30.05,NNW,330,0.0,0.0,94,0.00,CLR,,0.00,WeatherDisplay:10.37,2015-08-28 06:49:00,
2015-08-28 02:54:00,61.2,59.5,30.04,NNW,339,0.3,1.2,94,0.00,CLR,,0.00,WeatherDisplay:10.37,2015-08-28 06:54:00,
2015-08-28 02:59:00,61.3,59.6,30.04,NNW,339,0.2,1.2,94,0.00,CLR,,0.00,WeatherDisplay:10.37,2015-08-28 06:59:00,
2015-08-28 03:04:00,61.3,59.6,30.05,NNW,339,0.2,1.2,94,0.00,CLR,,0.00,WeatherDisplay:10.37,2015-08-28 07:04:00,
2015-08-28 03:09:00,61.4,59.7,30.05,NNW,339,0.0,0.0,94,0.00,CLR,,0.00,WeatherDisplay:10.37,2015-08-28 07:09:00,
2015-08-28 03:14:00,61.4,60.0,30.05,NW,314,0.2,1.2,95,0.00,CLR,,0.00,WeatherDisplay:10.37,2015-08-28 07:14:00,
2015-08-28 03:19:00,61.5,60.1,30.05,NW,313,0.0,0.0,95,0.00,CLR,,0.00,WeatherDisplay:10.37,2015-08-28 07:19:00,
2015-08-28 03:24:00,61.6,60.2,30.05,NW,313,0.0,0.0,95,0.00,CLR,,0.00,WeatherDisplay:10.37,2015-08-28 07:24:00,
2015-08-28 03:29:00,61.6,60.2,30.05,NW,313,0.0,0.0,95,0.00,CLR,,0.00,WeatherDisplay:10.37,2015-08-28 07:29:00,
2015-08-28 03:34:00,61.6,60.2,30.05,NW,313,0.0,0.0,95,0.00,CLR,,0.00,WeatherDisplay:10.37,2015-08-28 07:34:00,
2015-08-28 03:39:00,61.5,60.1,30.05,NW,314,0.0,0.0,95,0.00,CLR,,0.00,WeatherDisplay:10.37,2015-08-28 07:39:00,
2015-08-28 03:44:00,61.6,60.2,30.05,NW,313,0.0,0.0,95,0.00,CLR,,0.00,WeatherDisplay:10.37,2015-08-28 07:44:00,
2015-08-28 03:49:00,61.5,60.1,30.05,NW,313,0.0,0.0,95,0.00,CLR,,0.00,WeatherDisplay:10.37,2015-08-28 07:49:00,
2015-08-28 03:54:00,61.4,60.0,30.05,NW,314,0.0,0.0,95,0.00,CLR,,0.00,WeatherDisplay:10.37,2015-08-28 07:54:00,
2015-08-28 03:59:00,61.3,59.9,30.06,NW,313,0.0,0.0,95,0.00,CLR,,0.00,WeatherDisplay:10.37,2015-08-28 07:59:00,
2015-08-28 04:04:00,61.2,59.8,30.05,NW,313,0.0,0.0,95,0.00,CLR,,0.00,WeatherDisplay:10.37,2015-08-28 08:04:00,
2015-08-28 04:09:00,61.0,59.6,30.06,NW,313,0.0,0.0,95,0.00,CLR,,0.00,WeatherDisplay:10.37,2015-08-28 08:09:00,
2015-08-28 04:14:00,60.9,59.5,30.06,NW,313,0.0,0.0,95,0.00,CLR,,0.00,WeatherDisplay:10.37,2015-08-28 08:14:00,
2015-08-28 04:19:00,60.8,59.4,30.06,NW,314,0.0,0.0,95,0.00,CLR,,0.00,WeatherDisplay:10.37,2015-08-28 08:19:00,
2015-08-28 04:24:00,60.7,59.3,30.06,NW,313,0.0,0.0,95,0.00,CLR,,0.00,WeatherDisplay:10.37,2015-08-28 08:24:00,
2015-08-28 04:29:00,60.6,59.2,30.06,NW,313,0.0,0.0,95,0.00,CLR,,0.00,WeatherDisplay:10.37,2015-08-28 08:29:00,
2015-08-28 04:34:00,60.5,59.4,30.06,NW,313,0.0,0.0,96,0.00,CLR,,0.00,WeatherDisplay:10.37,2015-08-28 08:34:00,
2015-08-28 04:39:00,60.4,59.3,30.06,NW,313,0.0,0.0,96,0.00,CLR,,0.00,WeatherDisplay:10.37,2015-08-28 08:39:00,
2015-08-28 04:44:00,60.4,59.3,30.06,NW,314,0.0,0.0,96,0.00,CLR,,0.00,WeatherDisplay:10.37,2015-08-28 08:44:00,
2015-08-28 04:49:00,60.4,59.3,30.06,NW,313,0.0,0.0,96,0.00,CLR,,0.00,WeatherDisplay:10.37,2015-08-28 08:49:00,
2015-08-28 04:54:00,60.4,59.3,30.07,NW,313,0.0,0.0,96,0.00,CLR,,0.00,WeatherDisplay:10.37,2015-08-28 08:54:00,
2015-08-28 04:59:00,60.3,59.2,30.07,NW,313,0.0,0.0,96,0.00,CLR,,0.00,WeatherDisplay:10.37,2015-08-28 08:59:00,
2015-08-28 05:04:00,60.2,59.1,30.07,NW,313,0.0,0.0,96,0.00,CLR,,0.00,WeatherDisplay:10.37,2015-08-28 09:04:00,
2015-08-28 05:09:00,60.2,59.1,30.07,NW,313,0.0,0.0,96,0.00,CLR,,0.00,WeatherDisplay:10.37,2015-08-28 09:09:00,
2015-08-28 05:14:00,60.1,59.0,30.06,NW,314,0.0,0.0,96,0.00,CLR,,0.00,WeatherDisplay:10.37,2015-08-28 09:14:00,
2015-08-28 05:19:00,60.1,59.0,30.07,NW,313,0.0,0.0,96,0.00,CLR,,0.00,WeatherDisplay:10.37,2015-08-28 09:19:00,
2015-08-28 05:24:00,60.0,58.9,30.07,NW,313,0.0,0.0,96,0.00,CLR,,0.00,WeatherDisplay:10.37,2015-08-28 09:24:00,
2015-08-28 05:29:00,59.9,58.8,30.07,NW,313,0.0,0.0,96,0.00,CLR,,0.00,WeatherDisplay:10.37,2015-08-28 09:29:00,
2015-08-28 05:34:00,59.9,58.8,30.07,NW,313,0.0,0.0,96,0.00,CLR,,0.00,WeatherDisplay:10.37,2015-08-28 09:34:00,
2015-08-28 05:39:00,59.8,58.7,30.07,NW,313,0.0,0.0,96,0.00,CLR,,0.00,WeatherDisplay:10.37,2015-08-28 09:39:00,
2015-08-28 05:44:00,59.7,58.6,30.07,NW,313,0.1,1.2,96,0.00,CLR,,0.00,WeatherDisplay:10.37,2015-08-28 09:44:00,
2015-08-28 05:49:00,59.6,58.5,30.07,NW,313,0.0,0.0,96,0.00,CLR,,0.00,WeatherDisplay:10.37,2015-08-28 09:49:00,
2015-08-28 05:54:00,59.6,58.5,30.07,NW,313,0.0,0.0,96,0.00,CLR,,0.00,WeatherDisplay:10.37,2015-08-28 09:54:00,
2015-08-28 05:59:00,59.6,58.7,30.07,NW,313,0.0,0.0,97,0.00,CLR,,0.00,WeatherDisplay:10.37,2015-08-28 09:59:00,
2015-08-28 06:04:00,59.6,58.5,30.08,NW,313,0.0,0.0,96,0.00,CLR,,0.00,WeatherDisplay:10.37,2015-08-28 10:04:00,
2015-08-28 06:09:00,59.5,58.6,30.08,NW,313,0.0,0.0,97,0.00,CLR,,0.00,WeatherDisplay:10.37,2015-08-28 10:09:00,
2015-08-28 06:14:00,59.5,58.6,30.08,NW,314,0.0,0.0,97,0.00,CLR,,0.00,WeatherDisplay:10.37,2015-08-28 10:14:00,
2015-08-28 06:19:00,59.5,58.6,30.08,NW,313,0.0,0.0,97,0.00,CLR,,0.00,WeatherDisplay:10.37,2015-08-28 10:19:00,
2015-08-28 06:24:00,59.4,58.5,30.08,NW,313,0.0,0.0,97,0.00,CLR,,0.00,WeatherDisplay:10.37,2015-08-28 10:24:00,
2015-08-28 06:29:00,59.4,58.5,30.08,NW,313,0.0,0.0,97,0.00,CLR,,0.00,WeatherDisplay:10.37,2015-08-28 10:29:00,
2015-08-28 06:34:00,59.4,58.5,30.08,NW,313,0.1,1.2,97,0.00,CLR,,0.00,WeatherDisplay:10.37,2015-08-28 10:34:00,
2015-08-28 06:39:00,59.4,58.5,30.08,NW,314,0.0,0.0,97,0.00,CLR,,0.00,WeatherDisplay:10.37,2015-08-28 10:39:00,
2015-08-28 06:44:00,59.4,58.5,30.09,NW,314,0.0,1.2,97,0.00,CLR,,0.00,WeatherDisplay:10.37,2015-08-28 10:44:00,
2015-08-28 06:49:00,59.5,58.6,30.09,NW,314,0.0,0.0,97,0.00,CLR,,0.00,WeatherDisplay:10.37,2015-08-28 10:49:00,
2015-08-28 06:54:00,59.6,58.7,30.09,NW,314,0.0,0.0,97,0.00,CLR,,0.00,WeatherDisplay:10.37,2015-08-28 10:54:00,
2015-08-28 06:59:00,59.8,58.9,30.09,NW,314,0.0,0.0,97,0.00,CLR,,0.00,WeatherDisplay:10.37,2015-08-28 10:59:00,
2015-08-28 07:04:00,60.0,59.1,30.09,NW,314,0.0,0.0,97,0.00,CLR,,0.00,WeatherDisplay:10.37,2015-08-28 11:04:00,
2015-08-28 07:09:00,60.3,59.7,30.10,NW,314,0.0,0.0,98,0.00,CLR,,0.00,WeatherDisplay:10.37,2015-08-28 11:09:00,
2015-08-28 07:14:00,60.6,60.0,30.10,NW,314,0.0,0.0,98,0.00,CLR,,0.00,WeatherDisplay:10.37,2015-08-28 11:14:00,
2015-08-28 07:19:00,60.9,60.3,30.10,NW,314,0.0,0.0,98,0.00,CLR,,0.00,WeatherDisplay:10.37,2015-08-28 11:19:00,
2015-08-28 07:24:00,61.6,61.0,30.10,NW,315,0.0,0.0,98,0.00,CLR,,0.00,WeatherDisplay:10.37,2015-08-28 11:24:00,
2015-08-28 07:29:00,62.3,61.7,30.10,NW,315,0.0,0.0,98,0.00,CLR,,0.00,WeatherDisplay:10.37,2015-08-28 11:29:00,
2015-08-28 07:34:00,62.7,62.1,30.10,NW,315,0.0,1.2,98,0.00,CLR,,0.00,WeatherDisplay:10.37,2015-08-28 11:34:00,
2015-08-28 07:39:00,63.1,62.5,30.10,NW,315,0.5,2.0,98,0.00,CLR,,0.00,WeatherDisplay:10.37,2015-08-28 11:39:00,
2015-08-28 07:44:00,63.5,62.9,30.10,NNE,28,0.6,1.2,98,0.00,CLR,,0.00,WeatherDisplay:10.37,2015-08-28 11:44:00,
2015-08-28 07:49:00,63.9,63.0,30.10,North,354,0.2,3.5,97,0.00,CLR,,0.00,WeatherDisplay:10.37,2015-08-28 11:49:00,
2015-08-28 07:54:00,64.4,63.5,30.10,NNW,337,1.0,4.6,97,0.00,CLR,,0.00,WeatherDisplay:10.37,2015-08-28 11:54:00,
2015-08-28 07:59:00,65.1,63.9,30.10,NW,320,2.1,3.5,96,0.00,CLR,,0.00,WeatherDisplay:10.37,2015-08-28 11:59:00,
2015-08-28 08:04:00,66.1,64.3,30.10,WNW,284,0.6,1.2,94,0.00,CLR,,0.00,WeatherDisplay:10.37,2015-08-28 12:04:00,
2015-08-28 08:09:00,67.1,64.7,30.10,WNW,297,1.0,2.3,92,0.00,CLR,,0.00,WeatherDisplay:10.37,2015-08-28 12:09:00,
2015-08-28 08:14:00,68.0,65.0,30.10,NNW,332,1.0,2.3,90,0.00,CLR,,0.00,WeatherDisplay:10.37,2015-08-28 12:14:00,
2015-08-28 08:19:00,68.8,64.1,30.11,NNW,348,2.2,3.5,85,0.00,CLR,,0.00,WeatherDisplay:10.37,2015-08-28 12:19:00,
2015-08-28 08:24:00,69.7,64.6,30.11,NE,40,1.7,3.5,84,0.00,CLR,,0.00,WeatherDisplay:10.37,2015-08-28 12:24:00,
2015-08-28 08:29:00,70.4,64.6,30.11,North,10,1.3,2.3,82,0.00,CLR,,0.00,WeatherDisplay:10.37,2015-08-28 12:29:00,
2015-08-28 08:34:00,71.0,65.2,30.11,WNW,287,2.1,2.3,82,0.00,CLR,,0.00,WeatherDisplay:10.37,2015-08-28 12:34:00,
2015-08-28 08:39:00,71.5,64.6,30.11,SE,138,1.1,2.3,79,0.00,CLR,,0.00,WeatherDisplay:10.37,2015-08-28 12:39:00,
2015-08-28 08:44:00,71.9,64.7,30.11,WNW,303,0.8,2.3,78,0.00,CLR,,0.00,WeatherDisplay:10.37,2015-08-28 12:44:00,
2015-08-28 08:49:00,72.4,65.2,30.11,ENE,68,0.0,1.2,78,0.00,CLR,,0.00,WeatherDisplay:10.37,2015-08-28 12:49:00,
2015-08-28 08:54:00,72.7,64.3,30.11,NE,39,1.3,2.3,75,0.00,CLR,,0.00,WeatherDisplay:10.37,2015-08-28 12:54:00,
2015-08-28 08:59:00,72.7,63.9,30.11,NNE,18,1.6,3.5,74,0.00,CLR,,0.00,WeatherDisplay:10.37,2015-08-28 12:59:00,
2015-08-28 09:04:00,72.7,64.3,30.11,ENE,78,1.6,3.5,75,0.00,CLR,,0.00,WeatherDisplay:10.37,2015-08-28 13:04:00,
2015-08-28 09:09:00,72.7,63.9,30.11,East,82,2.4,3.5,74,0.00,CLR,,0.00,WeatherDisplay:10.37,2015-08-28 13:09:00,
2015-08-28 09:14:00,72.9,63.7,30.11,North,9,1.4,3.5,73,0.00,CLR,,0.00,WeatherDisplay:10.37,2015-08-28 13:14:00,
2015-08-28 09:19:00,73.4,65.0,30.11,North,359,2.4,3.5,75,0.00,CLR,,0.00,WeatherDisplay:10.37,2015-08-28 13:19:00,
2015-08-28 09:24:00,73.6,64.4,30.11,NNW,329,0.6,1.2,73,0.00,CLR,,0.00,WeatherDisplay:10.37,2015-08-28 13:24:00,
2015-08-28 09:29:00,73.5,63.5,30.11,East,87,0.5,2.3,71,0.00,CLR,,0.00,WeatherDisplay:10.37,2015-08-28 13:29:00,
2015-08-28 09:34:00,73.6,64.4,30.12,ESE,102,1.5,2.3,73,0.00,CLR,,0.00,WeatherDisplay:10.37,2015-08-28 13:34:00,
2015-08-28 09:39:00,74.2,63.8,30.11,North,10,3.3,5.8,70,0.00,CLR,,0.00,WeatherDisplay:10.37,2015-08-28 13:39:00,
2015-08-28 09:44:00,74.4,63.6,30.12,WNW,282,1.9,3.5,69,0.00,CLR,,0.00,WeatherDisplay:10.37,2015-08-28 13:44:00,
2015-08-28 09:49:00,74.7,64.3,30.12,NNW,341,2.4,3.5,70,0.00,CLR,,0.00,WeatherDisplay:10.37,2015-08-28 13:49:00,
2015-08-28 09:54:00,74.6,64.2,30.12,West,276,1.8,3.5,70,0.00,CLR,,0.00,WeatherDisplay:10.37,2015-08-28 13:54:00,
2015-08-28 09:59:00,74.7,63.9,30.12,East,79,1.7,4.0,69,0.00,CLR,,0.00,WeatherDisplay:10.37,2015-08-28 13:59:00,
2015-08-28 10:04:00,75.0,63.7,30.12,North,4,1.5,2.3,68,0.00,CLR,,0.00,WeatherDisplay:10.37,2015-08-28 14:04:00,
2015-08-28 10:09:00,75.1,63.4,30.12,WNW,303,2.2,3.5,67,0.00,CLR,,0.00,WeatherDisplay:10.37,2015-08-28 14:09:00,
2015-08-28 10:14:00,75.1,64.2,30.12,NE,41,2.1,3.5,69,0.00,CLR,,0.00,WeatherDisplay:10.37,2015-08-28 14:14:00,
2015-08-28 10:19:00,75.6,63.9,30.12,NNE,18,1.5,1.5,67,0.00,CLR,,0.00,WeatherDisplay:10.37,2015-08-28 14:19:00,
2015-08-28 10:24:00,76.3,65.0,30.12,North,4,0.6,2.3,68,0.00,CLR,,0.00,WeatherDisplay:10.37,2015-08-28 14:24:00,
2015-08-28 10:29:00,76.5,64.7,30.12,ENE,74,2.5,5.8,67,0.00,CLR,,0.00,WeatherDisplay:10.37,2015-08-28 14:29:00,
2015-08-28 10:34:00,76.6,65.2,30.12,ENE,62,1.6,2.3,68,0.00,CLR,,0.00,WeatherDisplay:10.37,2015-08-28 14:34:00,
2015-08-28 10:39:00,76.6,64.0,30.12,SSW,197,0.6,2.3,65,0.00,CLR,,0.00,WeatherDisplay:10.37,2015-08-28 14:39:00,
2015-08-28 10:44:00,76.5,64.3,30.12,NW,310,1.2,1.2,66,0.00,CLR,,0.00,WeatherDisplay:10.37,2015-08-28 14:44:00,
2015-08-28 10:49:00,76.8,65.4,30.12,NNE,18,1.7,3.5,68,0.00,CLR,,0.00,WeatherDisplay:10.37,2015-08-28 14:49:00,
2015-08-28 10:54:00,76.8,64.6,30.12,SSW,213,1.8,2.3,66,0.00,CLR,,0.00,WeatherDisplay:10.37,2015-08-28 14:54:00,
2015-08-28 10:59:00,75.8,64.5,30.12,NNW,346,2.9,3.5,68,0.00,CLR,,0.00,WeatherDisplay:10.37,2015-08-28 14:59:00,
2015-08-28 11:04:00,75.3,64.4,30.13,WSW,248,2.1,3.5,69,0.00,CLR,,0.00,WeatherDisplay:10.37,2015-08-28 15:04:00,
2015-08-28 11:09:00,74.9,63.6,30.13,NNE,14,1.6,3.5,68,0.00,CLR,,0.00,WeatherDisplay:10.37,2015-08-28 15:09:00,
2015-08-28 11:14:00,74.7,63.4,30.13,NNE,15,0.5,2.3,68,0.00,CLR,,0.00,WeatherDisplay:10.37,2015-08-28 15:14:00,
2015-08-28 11:19:00,74.6,63.8,30.12,NNE,13,0.0,0.0,69,0.00,CLR,,0.00,WeatherDisplay:10.37,2015-08-28 15:19:00,
2015-08-28 11:24:00,74.6,62.9,30.13,NW,309,0.7,1.2,67,0.00,CLR,,0.00,WeatherDisplay:10.37,2015-08-28 15:24:00,
2015-08-28 11:29:00,74.4,63.1,30.13,WSW,237,0.0,1.2,68,0.00,CLR,,0.00,WeatherDisplay:10.37,2015-08-28 15:29:00,
2015-08-28 11:34:00,74.2,64.2,30.13,SE,125,1.7,2.3,71,0.00,CLR,,0.00,WeatherDisplay:10.37,2015-08-28 15:34:00,
2015-08-28 11:39:00,74.0,64.0,30.13,SE,141,0.2,1.2,71,0.00,CLR,,0.00,WeatherDisplay:10.37,2015-08-28 15:39:00,
2015-08-28 11:44:00,73.8,64.6,30.13,ESE,102,1.3,2.3,73,0.00,CLR,,0.00,WeatherDisplay:10.37,2015-08-28 15:44:00,
2015-08-28 11:49:00,73.5,64.3,30.13,West,270,0.0,1.2,73,0.00,CLR,,0.00,WeatherDisplay:10.37,2015-08-28 15:49:00,
2015-08-28 11:54:00,73.3,64.1,30.13,SW,229,0.0,0.0,73,0.00,CLR,,0.00,WeatherDisplay:10.37,2015-08-28 15:54:00,
2015-08-28 11:59:00,73.3,64.9,30.13,ENE,77,0.0,1.2,75,0.00,CLR,,0.00,WeatherDisplay:10.37,2015-08-28 15:59:00,
2015-08-28 12:04:00,73.3,64.5,30.13,SE,132,2.1,3.5,74,0.00,CLR,,0.00,WeatherDisplay:10.37,2015-08-28 16:04:00,
2015-08-28 12:09:00,73.8,65.0,30.13,SE,128,2.9,3.5,74,0.00,CLR,,0.00,WeatherDisplay:10.37,2015-08-28 16:09:00,
2015-08-28 12:14:00,74.4,64.8,30.13,SSE,161,3.3,9.2,72,0.00,CLR,,0.00,WeatherDisplay:10.37,2015-08-28 16:14:00,
2015-08-28 12:19:00,74.4,65.2,30.13,SSW,197,0.6,3.5,73,0.00,CLR,,0.00,WeatherDisplay:10.37,2015-08-28 16:19:00,
2015-08-28 12:24:00,74.2,65.4,30.13,SSE,147,0.1,2.0,74,0.00,CLR,,0.00,WeatherDisplay:10.37,2015-08-28 16:24:00,
2015-08-28 12:29:00,74.2,65.0,30.13,SE,127,1.5,3.0,73,0.00,CLR,,0.00,WeatherDisplay:10.37,2015-08-28 16:29:00,
2015-08-28 12:34:00,74.9,65.7,30.13,SW,229,1.4,2.3,73,0.00,CLR,,0.00,WeatherDisplay:10.37,2015-08-28 16:34:00,
2015-08-28 12:39:00,75.3,65.2,30.13,SSW,197,3.1,3.5,71,0.00,CLR,,0.00,WeatherDisplay:10.37,2015-08-28 16:39:00,
2015-08-28 12:44:00,75.3,64.8,30.12,NNE,14,2.1,4.6,70,0.00,CLR,,0.00,WeatherDisplay:10.37,2015-08-28 16:44:00,
2015-08-28 12:49:00,74.9,64.5,30.12,SE,130,1.8,3.5,70,0.00,CLR,,0.00,WeatherDisplay:10.37,2015-08-28 16:49:00,
2015-08-28 12:54:00,74.7,65.1,30.12,SSE,148,1.8,2.3,72,0.00,CLR,,0.00,WeatherDisplay:10.37,2015-08-28 16:54:00,
2015-08-28 12:59:00,74.3,64.7,30.12,WSW,243,0.2,1.2,72,0.00,CLR,,0.00,WeatherDisplay:10.37,2015-08-28 16:59:00,
2015-08-28 13:04:00,74.4,64.8,30.12,SSE,165,1.3,3.5,72,0.00,CLR,,0.00,WeatherDisplay:10.37,2015-08-28 17:04:00,
2015-08-28 13:09:00,74.9,64.9,30.12,SSE,157,1.1,2.3,71,0.00,CLR,,0.00,WeatherDisplay:10.37,2015-08-28 17:09:00,
2015-08-28 13:14:00,74.9,64.5,30.12,SW,214,0.8,2.3,70,0.00,CLR,,0.00,WeatherDisplay:10.37,2015-08-28 17:14:00,
2015-08-28 13:19:00,74.6,64.2,30.12,SSW,210,0.5,1.2,70,0.00,CLR,,0.00,WeatherDisplay:10.37,2015-08-28 17:19:00,
2015-08-28 13:24:00,74.2,65.4,30.12,SW,214,0.0,0.0,74,0.00,CLR,,0.00,WeatherDisplay:10.37,2015-08-28 17:24:00,
2015-08-28 13:29:00,73.8,65.0,30.12,SW,214,0.0,1.2,74,0.00,CLR,,0.00,WeatherDisplay:10.37,2015-08-28 17:29:00,
2015-08-28 13:34:00,73.4,65.0,30.12,West,270,0.1,3.5,75,0.00,CLR,,0.00,WeatherDisplay:10.37,2015-08-28 17:34:00,
2015-08-28 13:39:00,73.7,64.9,30.12,SSE,160,2.1,2.3,74,0.00,CLR,,0.00,WeatherDisplay:10.37,2015-08-28 17:39:00,
2015-08-28 13:44:00,74.2,65.0,30.12,SSE,158,2.2,3.5,73,0.00,CLR,,0.00,WeatherDisplay:10.37,2015-08-28 17:44:00,
2015-08-28 13:49:00,74.7,65.1,30.12,SW,224,1.1,3.5,72,0.00,CLR,,0.00,WeatherDisplay:10.37,2015-08-28 17:49:00,
2015-08-28 13:54:00,74.8,65.6,30.12,SSW,196,0.9,1.2,73,0.00,CLR,,0.00,WeatherDisplay:10.37,2015-08-28 17:54:00,
2015-08-28 13:59:00,74.8,65.2,30.12,WNW,299,0.8,2.3,72,0.00,CLR,,0.00,WeatherDisplay:10.37,2015-08-28 17:59:00,
2015-08-28 14:04:00,75.7,65.2,30.12,SE,128,0.0,0.0,70,0.00,CLR,,0.00,WeatherDisplay:10.37,2015-08-28 18:04:00,
2015-08-28 14:09:00,76.1,65.2,30.12,ESE,102,0.6,3.5,69,0.00,CLR,,0.00,WeatherDisplay:10.37,2015-08-28 18:09:00,
2015-08-28 14:14:00,75.7,64.8,30.12,ENE,77,0.2,1.2,69,0.00,CLR,,0.00,WeatherDisplay:10.37,2015-08-28 18:14:00,
2015-08-28 14:19:00,75.2,64.7,30.12,NE,54,0.5,2.3,70,0.00,CLR,,0.00,WeatherDisplay:10.37,2015-08-28 18:19:00,
2015-08-28 14:24:00,74.9,65.3,30.12,East,80,0.3,0.0,72,0.00,CLR,,0.00,WeatherDisplay:10.37,2015-08-28 18:24:00,
2015-08-28 14:29:00,75.0,65.4,30.11,SE,125,1.6,3.5,72,0.00,CLR,,0.00,WeatherDisplay:10.37,2015-08-28 18:29:00,
2015-08-28 14:34:00,75.2,65.1,30.11,East,92,3.6,4.6,71,0.00,CLR,,0.00,WeatherDisplay:10.37,2015-08-28 18:34:00,
2015-08-28 14:39:00,75.1,65.5,30.11,East,99,1.1,3.5,72,0.00,CLR,,0.00,WeatherDisplay:10.37,2015-08-28 18:39:00,
2015-08-28 14:44:00,74.7,64.3,30.11,East,99,1.4,2.3,70,0.00,CLR,,0.00,WeatherDisplay:10.37,2015-08-28 18:44:00,
2015-08-28 14:49:00,74.8,65.2,30.11,SE,139,0.9,1.2,72,0.00,CLR,,0.00,WeatherDisplay:10.37,2015-08-28 18:49:00,
2015-08-28 14:54:00,75.1,64.6,30.11,East,95,0.9,1.2,70,0.00,CLR,,0.00,WeatherDisplay:10.37,2015-08-28 18:54:00,
2015-08-28 14:59:00,75.2,65.1,30.11,ESE,113,1.3,3.5,71,0.00,CLR,,0.00,WeatherDisplay:10.37,2015-08-28 18:59:00,
2015-08-28 15:04:00,75.5,65.0,30.11,ENE,73,1.4,5.8,70,0.00,CLR,,0.00,WeatherDisplay:10.37,2015-08-28 19:04:00,
2015-08-28 15:09:00,75.9,65.8,30.11,West,262,1.4,2.3,71,0.00,CLR,,0.00,WeatherDisplay:10.37,2015-08-28 19:09:00,
2015-08-28 15:14:00,76.0,65.5,30.11,SSW,199,1.7,3.5,70,0.00,CLR,,0.00,WeatherDisplay:10.37,2015-08-28 19:14:00,
2015-08-28 15:19:00,75.7,65.2,30.11,WSW,249,2.0,2.3,70,0.00,CLR,,0.00,WeatherDisplay:10.37,2015-08-28 19:19:00,
2015-08-28 15:24:00,75.7,65.6,30.12,SE,135,1.3,4.6,71,0.00,CLR,,0.00,WeatherDisplay:10.37,2015-08-28 19:24:00,
2015-08-28 15:29:00,75.8,65.3,30.12,WSW,242,2.0,3.5,70,0.00,CLR,,0.00,WeatherDisplay:10.37,2015-08-28 19:29:00,
2015-08-28 15:34:00,75.6,65.1,30.11,SSE,159,3.0,6.9,70,0.00,CLR,,0.00,WeatherDisplay:10.37,2015-08-28 19:34:00,
2015-08-28 15:39:00,75.8,64.9,30.11,SSE,166,1.3,4.6,69,0.00,CLR,,0.00,WeatherDisplay:10.37,2015-08-28 19:39:00,
2015-08-28 15:44:00,76.3,66.2,30.12,SSW,195,1.1,3.5,71,0.00,CLR,,0.00,WeatherDisplay:10.37,2015-08-28 19:44:00,
2015-08-28 15:49:00,76.6,65.7,30.11,SSW,212,1.5,3.5,69,0.00,CLR,,0.00,WeatherDisplay:10.37,2015-08-28 19:49:00,
2015-08-28 15:54:00,76.8,65.9,30.11,SSE,147,2.7,3.5,69,0.00,CLR,,0.00,WeatherDisplay:10.37,2015-08-28 19:54:00,
2015-08-28 15:59:00,76.4,65.5,30.12,South,181,2.8,5.8,69,0.00,CLR,,0.00,WeatherDisplay:10.37,2015-08-28 19:59:00,
2015-08-28 16:04:00,76.2,64.9,30.11,East,89,2.0,4.6,68,0.00,CLR,,0.00,WeatherDisplay:10.37,2015-08-28 20:04:00,
2015-08-28 16:09:00,76.4,65.9,30.11,ESE,110,1.4,4.6,70,0.00,CLR,,0.00,WeatherDisplay:10.37,2015-08-28 20:09:00,
2015-08-28 16:14:00,76.6,65.7,30.11,NW,326,0.6,2.3,69,0.00,CLR,,0.00,WeatherDisplay:10.37,2015-08-28 20:14:00,
2015-08-28 16:19:00,76.6,65.7,30.11,South,177,1.1,3.5,69,0.00,CLR,,0.00,WeatherDisplay:10.37,2015-08-28 20:19:00,
2015-08-28 16:24:00,76.5,65.6,30.11,South,173,0.2,2.3,69,0.00,CLR,,0.00,WeatherDisplay:10.37,2015-08-28 20:24:00,
2015-08-28 16:29:00,76.2,65.3,30.11,SSE,156,1.1,3.5,69,0.00,CLR,,0.00,WeatherDisplay:10.37,2015-08-28 20:29:00,
2015-08-28 16:34:00,75.8,64.9,30.11,SSE,154,0.4,1.2,69,0.00,CLR,,0.00,WeatherDisplay:10.37,2015-08-28 20:34:00,
2015-08-28 16:39:00,75.6,65.5,30.11,ESE,102,0.5,2.3,71,0.00,CLR,,0.00,WeatherDisplay:10.37,2015-08-28 20:39:00,
2015-08-28 16:44:00,75.2,65.1,30.11,South,171,2.7,3.5,71,0.00,CLR,,0.00,WeatherDisplay:10.37,2015-08-28 20:44:00,
2015-08-28 16:49:00,75.0,65.4,30.11,East,91,3.2,3.5,72,0.00,CLR,,0.00,WeatherDisplay:10.37,2015-08-28 20:49:00,
2015-08-28 16:54:00,74.6,65.4,30.11,South,185,1.6,3.5,73,0.00,CLR,,0.00,WeatherDisplay:10.37,2015-08-28 20:54:00,
2015-08-28 16:59:00,74.4,65.6,30.11,South,191,1.3,2.3,74,0.00,CLR,,0.00,WeatherDisplay:10.37,2015-08-28 20:59:00,
2015-08-28 17:04:00,74.2,65.4,30.11,South,183,1.2,3.5,74,0.00,CLR,,0.00,WeatherDisplay:10.37,2015-08-28 21:04:00,
2015-08-28 17:09:00,74.1,65.3,30.11,SSE,158,0.4,3.5,74,0.00,CLR,,0.00,WeatherDisplay:10.37,2015-08-28 21:09:00,
2015-08-28 17:14:00,74.1,65.3,30.11,SE,146,2.9,3.5,74,0.00,CLR,,0.00,WeatherDisplay:10.37,2015-08-28 21:14:00,
2015-08-28 17:19:00,74.1,65.7,30.11,South,177,0.7,3.5,75,0.00,CLR,,0.00,WeatherDisplay:10.37,2015-08-28 21:19:00,
2015-08-28 17:24:00,74.2,65.4,30.11,ESE,111,2.6,3.5,74,0.00,CLR,,0.00,WeatherDisplay:10.37,2015-08-28 21:24:00,
2015-08-28 17:29:00,73.8,65.4,30.11,SSE,149,1.5,4.6,75,0.00,CLR,,0.00,WeatherDisplay:10.37,2015-08-28 21:29:00,
2015-08-28 17:34:00,73.5,65.5,30.11,South,180,0.1,3.5,76,0.00,CLR,,0.00,WeatherDisplay:10.37,2015-08-28 21:34:00,
2015-08-28 17:39:00,73.5,65.1,30.11,SE,136,2.1,2.3,75,0.00,CLR,,0.00,WeatherDisplay:10.37,2015-08-28 21:39:00,
2015-08-28 17:44:00,73.3,64.9,30.11,ESE,118,0.3,2.3,75,0.00,CLR,,0.00,WeatherDisplay:10.37,2015-08-28 21:44:00,
2015-08-28 17:49:00,73.1,64.7,30.11,ENE,78,1.2,3.5,75,0.00,CLR,,0.00,WeatherDisplay:10.37,2015-08-28 21:49:00,
2015-08-28 17:54:00,73.0,65.0,30.11,SSE,151,1.5,3.5,76,0.00,CLR,,0.00,WeatherDisplay:10.37,2015-08-28 21:54:00,
2015-08-28 17:59:00,72.8,64.8,30.11,SSW,210,0.0,1.2,76,0.00,CLR,,0.00,WeatherDisplay:10.37,2015-08-28 21:59:00,
2015-08-28 18:04:00,72.9,64.9,30.11,SSW,211,0.0,0.0,76,0.00,CLR,,0.00,WeatherDisplay:10.37,2015-08-28 22:04:00,
2015-08-28 18:09:00,73.2,65.2,30.11,South,170,0.9,1.2,76,0.00,CLR,,0.00,WeatherDisplay:10.37,2015-08-28 22:09:00,
2015-08-28 18:14:00,73.1,65.1,30.11,South,179,1.6,2.3,76,0.00,CLR,,0.00,WeatherDisplay:10.37,2015-08-28 22:14:00,
2015-08-28 18:19:00,73.1,65.1,30.11,SSE,157,0.1,2.0,76,0.00,CLR,,0.00,WeatherDisplay:10.37,2015-08-28 22:19:00,
2015-08-28 18:24:00,72.8,64.8,30.12,South,179,0.1,2.0,76,0.00,CLR,,0.00,WeatherDisplay:10.37,2015-08-28 22:24:00,
2015-08-28 18:29:00,72.4,64.8,30.11,South,176,0.0,0.0,77,0.00,CLR,,0.00,WeatherDisplay:10.37,2015-08-28 22:29:00,
2015-08-28 18:34:00,72.1,64.5,30.11,South,176,0.5,1.2,77,0.00,CLR,,0.00,WeatherDisplay:10.37,2015-08-28 22:34:00,
2015-08-28 18:39:00,71.8,64.6,30.11,South,176,0.0,0.0,78,0.00,CLR,,0.00,WeatherDisplay:10.37,2015-08-28 22:39:00,
2015-08-28 18:44:00,71.6,64.7,30.11,SSE,166,0.0,1.2,79,0.00,CLR,,0.00,WeatherDisplay:10.37,2015-08-28 22:44:00,
2015-08-28 18:49:00,71.2,64.7,30.11,SSE,165,0.0,1.2,80,0.00,CLR,,0.00,WeatherDisplay:10.37,2015-08-28 22:49:00,
2015-08-28 18:54:00,70.9,64.8,30.11,SSE,165,0.1,1.2,81,0.00,CLR,,0.00,WeatherDisplay:10.37,2015-08-28 22:54:00,
2015-08-28 18:59:00,70.6,64.5,30.12,SSE,165,0.0,0.0,81,0.00,CLR,,0.00,WeatherDisplay:10.37,2015-08-28 22:59:00,
2015-08-28 19:04:00,70.2,64.1,30.12,SSE,165,0.0,1.2,81,0.00,CLR,,0.00,WeatherDisplay:10.37,2015-08-28 23:04:00,
2015-08-28 19:09:00,69.9,64.2,30.12,SSE,165,0.0,1.2,82,0.00,CLR,,0.00,WeatherDisplay:10.37,2015-08-28 23:09:00,